Skip Navigation Linkswww.weather.gov 
NOAA logo - Click to go to the NOAA homepage National Weather Service   NWS logo - Click to go to the NWS homepage    
Western Region Headquarters
navigation bar decoration      
Regional Divisions
 
 
 
 
 
USA.gov is the U.S. government's official web portal to all federal, state and local government web resources and services.
spacer
Printer Friendly  |   Go Back  |  Version: Current   1   2   3   4   5   6   7   8   9   10   |  Font:  A A A  |  

HOURLY WEATHER ROUNDUP
 
 ASUS45 KREV 061510
RWRNV
NEVADA REGIONAL WEATHER ROUNDUP
NATIONAL WEATHER SERVICE RENO NV
700 AM PST FRI MAR 06 2015

NOTE: "FAIR" INDICATES FEW OR NO CLOUDS BELOW 12,000 FEET WITH NO
SIGNIFICANT WEATHER AND/OR OBSTRUCTIONS TO VISIBILITY.

NVZ001-003-004-061600-
WESTERN NEVADA

CITY SKY/WX TMP DP RH WIND PRES REMARKS
RENO CLEAR 29 21 72 CALM 30.43R
CARSON CITY FAIR 25 19 80 CALM 30.43S
MINDEN FAIR 16 10 79 CALM 30.44
PYRAMID LAKE N/A 36 N/A N/A W7 N/A
FALLON PTCLDY 22 15 75 CALM 30.42R
LOVELOCK MOCLDY 18 7 62 CALM 30.43R
HAWTHORNE CLEAR 32 21 64 CALM 30.43R
$$

NVZ002-CAZ072-073-061600-
NORTHERN AND CENTRAL SIERRA

CITY SKY/WX TMP DP RH WIND PRES REMARKS
S. LAKE TAHOE CLEAR 21 14 74 S3 30.42R
TRUCKEE CLEAR 18 16 93 CALM 30.42S
SQUAW VLY 8000 N/A 32 10 40 E2 N/A
BLUE CANYON CLEAR 46 7 20 NE7 30.35S
MAMMOTH LAKES FAIR 14 7 73 CALM 30.44R
BRIDGEPORT FAIR 17 9 70 CALM 30.41S
$$

NVZ030-031-036-061600-
NORTHERN NEVADA

CITY SKY/WX TMP DP RH WIND PRES REMARKS
ELKO MOCLDY 21 12 68 CALM 30.45R
WINNEMUCCA MOCLDY 19 13 77 SE5 30.43R
WENDOVER PTCLDY 27 18 69 E3 30.44R
$$

NVZ035-037-061600-
CENTRAL NEVADA

CITY SKY/WX TMP DP RH WIND PRES REMARKS
ELY PTCLDY 19 15 84 S6 30.43S
EUREKA N/A 26 19 74 S8 30.43R
$$

NVZ013-014-061600-
SOUTH CENTRAL NEVADA

CITY SKY/WX TMP DP RH WIND PRES REMARKS
TONOPAH MOCLDY 29 14 53 N12 30.40R
$$

NVZ017-020-022-061600-
SOUTHERN NEVADA

CITY SKY/WX TMP DP RH WIND PRES REMARKS
LAS VEGAS SUNNY 48 29 47 SW7 30.29R
N. LAS VEGAS SUNNY 47 25 42 NW3 30.32R
NELLIS AFB NOT AVBL
HENDERSON SUNNY 41 31 67 S8 30.33R
MERCURY CLEAR 41 26 55 E3 30.32R
$$


Webmaster
US Dept of Commerce
National Oceanic and Atmospheric Administration
National Weather Service
Western Region Headquarters
125 South State Street
Salt Lake City, UT 84138-1102

Disclaimer
Information Quality
Credits
Glossary
Organization
Privacy Policy
Freedom of Information Act
About Us
Career Opportunities